Flag Weather past 2 weeks in Springfield, Massachusetts, U.S.A.

Now
54 °F

Overcast.


Feels Like: 51 °F
Forecast: 39 / 56 °F
Wind: 12 mph from Northwest

Location: Barnes Municipal Airport

Current Time: Oct 30, 2014 at 3:16:48 PM

Latest Report: Oct 30, 2014 at 1:53 PM


Visibility: 10 mi

Pressure: 29.96 "Hg

Humidity: 49%

Dew point: 35 °F

Location of SpringfieldLocation

Historic Weather in Springfield — Graph

°F

Springfield temperature yesterday

Maximum temperature yesterday: 65 °F (at 1:53 PM)
Minimum temperature yesterday: 41 °F (at 11:53 PM)
Average temperature yesterday: 53 °F

Past Weeks' High & Low Weather Summary

 TemperatureHumidityPressure
High78 °F (Oct 15, 1:53 PM)97% (Oct 17, 2:00 AM)30.09 "Hg (Oct 17, 2:00 AM)
Low31 °F (Oct 20, 3:53 AM)41% (Oct 20, 1:53 PM)29.48 "Hg (Oct 26, 4:53 AM)
Average53 °F76%29.82 "Hg
* Reported Oct 15 1:53 PM — Oct 30 1:53 PM, Springfield, Weather by CustomWeather, © 2014

Note: Actual official high and low records may vary slightly from our data, if they occured in-between our weather recording intervals... More about our weather records

Advertising

Springfield weather history for previous 24 hours

 ConditionsComfort  
Time TempWeatherWind HumidityBarometerVisibility
1:53 PM
Oct 30
54 °FOvercast.12 mph49%29.96 "Hg10 mi
12:53 PM56 °FPartly sunny.17 mph46%29.96 "Hg10 mi
11:53 AM55 °FScattered clouds.12 mph49%29.97 "Hg10 mi
10:53 AM54 °FSunny.7 mph55%29.97 "Hg10 mi
9:53 AM48 °FSunny.No wind80%29.98 "Hg10 mi
8:53 AM41 °FOvercast.No wind93%29.98 "Hg10 mi
7:53 AM38 °FOvercast.3 mph97%29.97 "Hg10 mi
6:53 AM36 °FOvercast.3 mph97%29.96 "Hg9 mi
5:53 AM34 °FFog.5 mph92%29.94 "Hg5 mi
4:53 AM34 °FFog.No wind92%29.93 "Hg1 mi
4:01 AM35 °FFog.No wind92%29.92 "Hg1 mi
3:02 AM37 °FFog.No wind93%29.92 "Hg1 mi
2:53 AM37 °FFog.No wind93%29.93 "Hg1 mi
1:53 AM37 °FFog.No wind96%29.92 "Hg1 mi
1:03 AM39 °FFog.No wind93%29.92 "Hg1 mi
1:01 AM39 °FFog.No wind93%29.92 "Hg1 mi
11:53 PM
Oct 29
41 °FFog.No wind96%29.93 "Hg1 mi
10:53 PM45 °FClear.No wind93%29.92 "Hg10 mi
9:53 PM50 °FPassing clouds.6 mph77%29.91 "Hg10 mi
8:53 PM50 °FPassing clouds.5 mph89%29.90 "Hg10 mi
7:53 PM51 °FMostly cloudy.3 mph92%29.90 "Hg10 mi
7:00 PM51 °FLight rain. Overcast.No wind92%29.87 "Hg10 mi
5:53 PM52 °FLight rain. Overcast.3 mph83%29.86 "Hg2 mi
4:53 PM59 °FOvercast.5 mph51%29.85 "Hg10 mi
3:53 PM59 °FOvercast.12 mph54%29.85 "Hg10 mi
Weather by CustomWeather, © 2014

See weather overviewHow to use our weather pages